Location: Unspecified
(58.7730°N, 5.8460°E)
Time: 18:58:36
(UTC+01:00)

Cosmos 1674 - Visible Passes

Search period start: 15 December 2017 00:00
Search period end: 25 December 2017 00:00
Orbit: 498 x 521 km, 82.5° (Epoch: 14 December)

Date Brightness Start Highest point End Pass type
(mag) Time Alt. Az. Time Alt. Az. Time Alt. Az.
15 Dec 5.3 07:39:47 10° NNE 07:41:47 14° NE 07:43:46 10° E visible
16 Dec 5.5 07:23:14 10° NNE 07:24:43 12° NE 07:26:12 10° ENE visible
17 Dec 5.6 07:07:04 10° NE 07:07:39 10° NE 07:08:13 10° ENE visible
18 Dec 3.9 08:23:36 10° N 08:27:16 41° ENE 08:30:53 10° SE visible
19 Dec 4.2 08:06:44 10° N 08:10:17 35° ENE 08:13:47 10° SE visible
20 Dec 4.4 07:49:53 10° N 07:53:17 29° ENE 07:56:39 10° SE visible
21 Dec 4.7 07:33:02 10° N 07:36:17 25° ENE 07:39:29 10° ESE visible
22 Dec 4.9 07:16:13 10° N 07:19:16 22° ENE 07:22:16 10° ESE visible
23 Dec 5.1 06:59:26 10° NNE 07:02:13 19° ENE 07:04:59 10° ESE visible
24 Dec 5.3 06:42:40 10° NNE 06:45:10 17° NE 06:47:40 10° E visible
24 Dec 2.6 08:17:31 10° NNW 08:21:21 85° WSW 08:25:07 10° S visible
